Wind_Speed
47 42 36 36 35 30 37 39 41 39 41 41 43 47 48 50 55 57 58 55 62 62 61 56 65 62 64 66 70 74 69 65 54 49 46 47 48 50 53 60 64 68 71 75 77 81 84 86 85
39 41 43 46 43 37 39 39 39 38 41 45 46 49 51 55 60 58 62 60 62 63 66 63 67 64 60 67 74 76 75 56 46 44 47 49 53 56 55 57 62 68 70 74 78 80 83 87 89
44 44 50 52 48 41 42 43 41 40 43 46 47 48 53 59 62 64 64 64 65 68 72 74 64 59 69 72 77 74 65 47 45 49 52 56 56 57 57 58 60 63 69 74 78 82 85 89 93
47 48 54 54 53 48 45 43 40 46 47 49 46 49 56 63 66 66 65 68 71 73 75 71 70 74 74 79 75 62 55 46 47 52 55 58 61 61 60 63 63 64 68 73 77 80 86 88 90
51 54 51 56 56 60 52 49 51 50 48 50 47 49 54 59 64 68 66 70 76 77 73 68 67 75 78 75 69 58 50 50 56 58 59 58 58 60 61 65 69 70 70 74 78 80 83 86 88
53 56 57 57 59 58 57 58 56 56 56 52 54 55 61 65 71 70 70 73 80 70 70 65 67 76 75 74 64 57 48 50 50 52 54 54 59 64 67 69 70 71 73 74 77 79 80 81 84
60 60 58 60 57 63 61 59 61 60 62 59 58 58 63 67 73 75 71 75 75 71 73 73 76 80 77 68 60 58 52 51 48 50 56 60 63 66 69 70 72 74 74 74 77 78 79 81 82
63 61 60 63 63 63 60 59 63 63 64 67 66 62 64 70 74 69 71 78 77 75 73 76 82 85 77 66 59 57 54 58 54 54 57 59 62 64 63 64 64 65 66 67 69 71 74 77 78
65 60 59 65 65 63 64 61 62 63 65 67 68 66 68 74 73 71 76 77 69 71 77 88 86 83 69 60 55 57 58 60 57 59 61 64 61 58 55 54 53 55 57 60 60 63 69 72 74
68 61 64 65 66 66 66 64 64 65 67 65 67 68 71 72 75 75 79 75 79 80 86 92 81 69 59 55 54 55 56 57 59 60 60 58 55 51 49 48 49 50 49 50 52 58 63 66 71
68 62 69 67 70 68 67 69 64 67 70 68 72 75 76 75 75 78 73 77 82 84 87 92 69 61 58 54 53 54 54 56 55 55 52 53 50 47 45 45 47 46 45 47 49 52 57 60 65
70 68 67 71 73 69 70 71 68 70 69 70 73 73 75 76 76 70 75 78 82 86 88 72 63 60 54 52 54 54 52 50 47 46 47 47 48 49 49 48 47 46 40 41 44 46 49 50 56
71 71 73 75 75 73 69 67 69 70 70 67 70 69 73 73 73 78 80 86 85 83 74 62 60 53 51 52 50 48 48 43 41 41 44 46 47 46 44 41 39 33 32 35 37 39 42 41 43
77 73 72 73 73 67 64 65 63 69 71 70 65 67 71 70 79 79 85 89 85 82 67 62 58 53 51 49 46 46 40 37 38 40 41 43 41 40 38 31 29 27 27 29 29 31 34 34 39
78 75 70 66 69 70 65 60 67 68 68 64 63 65 71 70 73 83 86 76 76 64 59 58 54 48 47 48 45 41 35 33 36 34 36 40 41 35 30 26 23 22 23 24 24 27 30 32 36
67 62 59 64 63 65 56 63 62 63 61 58 62 68 66 72 73 79 71 68 62 59 58 54 49 45 47 44 38 35 34 31 31 29 35 38 36 29 26 24 22 20 20 19 19 23 25 28 33
60 57 56 59 56 61 58 61 61 58 57 61 64 68 71 76 77 70 65 63 59 59 54 49 46 46 44 37 34 34 27 28 29 33 34 37 33 24 23 22 20 17 17 16 15 20 23 27 34
56 51 51 55 53 54 55 56 55 55 54 58 64 67 70 71 68 63 70 65 56 55 49 44 43 44 38 32 33 29 23 27 29 35 38 34 28 20 18 15 17 14 14 13 12 17 21 27 31
53 52 55 57 57 56 59 53 50 51 53 60 66 63 72 67 60 70 66 52 52 51 46 40 42 40 30 32 31 20 22 22 28 36 35 30 21 17 16 12 13 11 10 9 11 15 19 24 29
54 55 60 60 58 55 50 45 49 55 60 63 63 66 60 71 68 63 53 53 53 44 41 38 39 33 29 31 23 17 18 20 27 30 29 21 15 17 16 11 10 8 7 7 11 15 19 27 28
58 57 57 53 51 43 43 47 53 58 59 58 61 53 62 61 65 57 54 52 44 39 37 36 33 29 29 26 17 14 13 19 24 24 22 21 22 20 13 9 8 5 6 7 11 17 25 28 29
53 53 53 50 47 44 47 52 56 56 60 60 58 53 52 52 52 56 53 44 41 35 32 31 27 28 27 20 13 12 11 18 23 24 22 21 23 20 10 5 3 3 7 8 11 19 27 28 30
54 53 50 47 45 49 52 56 59 60 65 61 53 42 46 48 54 50 46 40 31 30 30 24 25 26 21 17 12 9 8 16 21 21 22 19 18 18 4 2 3 2 8 9 10 18 26 27 26
59 48 50 52 51 51 60 59 60 53 57 49 40 50 45 43 39 45 34 32 27 28 24 23 25 25 16 15 9 2 8 17 20 28 31 21 13 16 4 5 4 5 9 10 12 15 21 26 31
56 55 54 53 53 61 63 53 57 46 41 37 33 32 30 34 34 40 30 24 23 22 21 24 23 22 13 14 9 1 10 18 23 26 26 20 17 11 5 4 8 7 12 12 14 16 24 31 42
61 62 57 55 57 57 53 38 48 38 36 30 28 24 25 26 30 29 25 22 17 19 20 23 22 20 13 7 9 2 9 18 22 25 26 20 14 11 3 7 11 10 13 13 13 18 30 39 47
62 56 61 59 57 55 52 44 38 34 29 29 19 18 16 22 20 19 21 17 16 19 18 20 20 19 12 3 10 1 10 15 22 29 27 18 16 9 5 9 10 12 16 18 18 20 26 34 44
61 65 65 58 53 51 51 44 34 28 24 22 17 13 14 19 19 15 18 15 16 15 16 18 19 17 10 5 8 0 9 13 23 28 25 23 18 13 9 11 11 11 15 16 16 24 24 32 40
70 65 62 58 54 46 45 31 23 27 25 22 12 12 15 18 22 16 18 14 13 12 16 18 18 15 9 8 8 4 10 15 23 23 18 18 18 16 15 12 10 10 12 10 14 20 22 21 32
74 71 70 63 56 57 56 40 25 27 24 16 11 9 12 17 20 18 19 13 11 13 16 18 18 14 6 10 11 6 10 16 24 21 20 19 17 18 21 20 16 11 14 12 12 13 17 20 25
Wind_Direction
293 287 280 285 288 297 294 291 301 311 305 306 308 305 306 304 302 303 311 311 310 307 305 299 302 293 299 309 309 315 311 303 278 275 271 264 262 263 262 258 254 250 251 248 242 240 241 240 236
276 274 279 283 287 291 306 293 303 308 305 302 304 306 305 302 303 305 313 313 308 305 303 298 299 290 304 310 312 310 307 300 281 275 270 265 267 268 265 261 258 254 251 249 248 244 241 240 238
268 272 281 283 282 291 304 305 307 308 308 307 299 301 298 298 302 302 306 310 309 305 304 303 296 302 310 313 312 309 307 293 282 273 270 271 272 269 266 262 259 258 255 252 248 246 244 240 238
265 279 286 287 279 286 299 304 300 304 305 306 303 297 294 295 298 299 298 305 308 306 305 302 296 303 312 315 313 308 304 284 271 268 269 268 268 269 269 269 264 260 256 254 252 248 245 242 239
273 283 283 288 289 295 293 299 300 296 302 301 297 295 297 297 298 299 298 300 308 308 303 295 301 306 311 312 313 306 295 280 275 274 271 269 267 265 264 262 260 259 256 255 253 251 247 245 243
269 279 285 286 293 291 291 297 297 299 298 298 297 299 298 298 300 302 297 303 308 303 296 305 313 315 317 313 308 303 303 289 281 278 273 268 264 261 260 262 263 261 260 258 256 254 252 248 244
269 281 284 285 290 287 287 292 291 296 298 300 302 299 299 301 303 300 297 303 304 297 302 309 313 314 313 309 298 300 301 298 292 283 275 271 269 268 268 267 267 267 266 262 259 255 252 248 245
272 279 278 282 289 283 288 287 287 294 297 301 304 304 301 303 302 297 297 302 300 307 313 320 318 314 309 303 299 302 302 300 298 294 289 286 281 278 277 274 268 263 260 257 254 254 252 249 245
275 278 276 282 283 284 289 286 286 290 294 296 301 306 303 304 303 299 299 301 305 316 320 315 316 313 306 304 302 301 298 297 296 292 290 289 289 284 279 274 270 264 261 259 256 252 249 247 244
277 278 277 279 281 281 286 288 289 290 293 297 301 305 304 302 297 298 298 296 301 309 315 317 315 310 305 299 298 299 294 293 291 291 292 291 289 287 282 279 275 271 268 264 258 251 248 244 239
273 272 274 276 279 281 284 289 290 289 291 296 299 302 304 300 298 295 292 293 304 310 312 316 309 304 304 303 299 297 299 297 294 294 294 295 295 294 292 286 281 279 274 268 258 251 246 243 238
271 273 271 278 280 282 285 288 287 289 290 296 297 302 299 296 290 290 295 302 313 313 313 313 309 305 304 302 304 306 302 297 297 296 295 296 297 297 294 287 283 279 273 265 257 252 249 241 237
271 271 273 275 275 280 284 288 288 289 292 294 300 298 295 292 291 296 300 303 311 314 315 313 315 309 308 307 308 306 304 301 299 299 299 301 301 300 295 287 282 277 264 257 253 251 247 241 233
268 272 272 275 278 281 280 282 285 287 292 294 298 293 293 290 293 300 305 308 316 315 313 314 314 312 310 308 308 306 302 302 301 300 301 307 307 303 299 290 283 274 260 258 250 247 242 234 226
267 269 271 271 273 276 278 285 285 286 289 294 295 290 291 298 302 300 309 317 316 313 311 314 313 311 310 311 311 308 306 302 300 309 303 307 308 305 303 295 284 270 264 256 246 240 235 227 217
263 265 267 269 270 274 277 280 283 286 290 293 288 288 292 295 305 307 318 318 313 313 313 315 313 309 313 316 309 310 309 296 304 307 310 311 309 308 308 297 288 274 266 255 242 232 226 218 208
258 260 264 269 274 274 275 276 280 285 289 287 287 289 293 296 306 313 316 315 310 312 314 314 310 309 315 312 309 313 300 299 307 308 313 312 313 314 315 296 284 279 267 254 234 226 216 207 202
258 267 266 270 271 272 274 274 280 283 282 285 288 293 298 306 314 311 312 311 308 311 314 313 310 312 316 311 314 310 291 304 309 310 313 310 313 313 306 294 289 281 262 247 223 218 211 204 202
261 264 267 268 269 271 272 275 280 281 279 282 286 299 301 311 312 312 312 308 311 310 314 311 311 315 315 315 314 300 289 303 306 316 317 318 320 321 307 292 280 276 251 233 212 205 203 194 197
262 263 265 268 269 272 272 276 276 273 276 285 294 298 311 312 314 312 313 315 312 310 311 309 314 317 321 316 308 291 293 304 316 320 328 329 327 322 315 305 292 291 243 224 200 193 183 183 186
258 261 262 266 270 271 273 274 275 278 282 292 299 314 313 314 311 312 312 310 311 310 309 311 315 322 324 313 301 289 296 307 316 324 344 353 355 332 316 305 303 274 213 192 180 186 173 179 180
264 261 263 264 269 270 273 272 277 278 286 296 307 312 308 307 306 304 309 309 310 309 312 312 321 327 323 309 291 277 294 324 322 324 338 344 345 344 317 303 297 245 186 172 174 174 169 177 180
248 255 260 266 268 266 271 270 275 279 283 296 307 302 302 299 298 305 305 305 310 308 310 319 324 330 322 315 278 270 327 332 334 341 335 337 341 349 319 16 22 156 166 150 165 165 166 176 183
246 251 253 256 261 267 267 272 275 288 296 306 301 302 305 302 306 305 307 308 317 310 317 320 323 329 321 320 270 264 340 332 346 350 340 335 346 343 330 73 69 131 150 145 148 161 168 177 178
246 246 249 254 259 261 266 275 279 299 306 298 291 294 291 298 304 300 306 316 313 324 323 324 331 334 327 320 231 283 3 343 350 348 344 354 345 348 16 123 111 128 147 152 148 159 173 169 173
241 245 250 255 255 258 267 288 293 293 298 281 278 279 285 308 301 305 318 310 330 332 324 332 335 343 337 318 199 206 2 331 342 355 356 348 354 353 20 156 135 147 154 155 157 159 174 175 177
238 239 244 245 253 261 271 286 292 288 279 271 277 279 301 326 315 316 314 334 355 335 335 336 343 347 341 239 199 139 8 347 1 6 2 360 8 24 108 150 137 141 159 156 163 170 177 182 183
235 237 241 249 260 265 270 280 287 261 258 263 267 306 321 336 344 323 345 354 358 345 343 344 348 345 332 243 204 199 336 352 12 6 15 33 36 47 89 130 138 140 149 160 161 176 178 189 187
240 247 250 256 261 267 273 270 253 248 249 253 274 318 343 347 2 347 355 1 9 351 350 351 351 345 314 208 193 111 2 357 13 17 33 35 61 59 89 115 128 136 137 140 161 169 179 181 191
240 243 247 255 263 265 270 267 230 236 239 245 258 335 346 358 6 5 5 12 13 358 354 353 358 350 308 206 166 126 42 13 27 40 41 34 47 65 74 78 89 103 97 112 135 155 176 181 187
Height
10935 10933 10930 10928 10927 10927 10925 10927 10927 10925 10924 10924 10923 10918 10912 10905 10902 10904 10901 10895 10887 10879 10875 10873 10869 10864 10861 10853 10848 10842 10836 10829 10823 10820 10819 10819 10821 10822 10822 10822 10822 10823 10824 10825 10829 10834 10838 10845 10853
10929 10927 10924 10922 10922 10921 10922 10918 10922 10920 10918 10916 10917 10911 10905 10895 10890 10890 10887 10882 10876 10870 10865 10861 10857 10853 10850 10842 10835 10828 10822 10813 10808 10807 10807 10806 10806 10806 10807 10808 10807 10806 10809 10810 10812 10816 10821 10826 10833
10923 10922 10919 10916 10916 10917 10913 10915 10914 10914 10914 10911 10911 10908 10900 10889 10881 10880 10879 10873 10867 10860 10852 10847 10841 10838 10834 10827 10822 10813 10804 10798 10796 10795 10794 10793 10790 10790 10791 10793 10792 10790 10791 10792 10795 10798 10802 10808 10814
10917 10916 10911 10909 10910 10910 10909 10910 10910 10903 10903 10904 10902 10901 10896 10884 10879 10876 10873 10866 10859 10850 10843 10836 10829 10824 10815 10810 10803 10794 10790 10786 10785 10782 10779 10778 10776 10774 10774 10773 10773 10773 10772 10774 10776 10780 10785 10789 10796
10911 10909 10907 10901 10902 10903 10902 10902 10902 10901 10900 10896 10893 10890 10886 10881 10872 10867 10865 10858 10849 10839 10831 10826 10819 10812 10805 10795 10785 10779 10775 10773 10769 10768 10765 10762 10760 10757 10756 10754 10752 10752 10754 10755 10757 10761 10766 10772 10779
10902 10903 10900 10896 10893 10894 10896 10891 10890 10889 10889 10888 10883 10879 10873 10867 10860 10856 10851 10846 10836 10826 10820 10814 10807 10801 10792 10782 10772 10767 10762 10759 10754 10752 10748 10745 10742 10739 10736 10735 10734 10734 10734 10737 10738 10741 10746 10752 10758
10895 10896 10893 10888 10887 10883 10888 10885 10880 10882 10876 10876 10876 10868 10860 10855 10849 10843 10838 10832 10823 10814 10808 10800 10792 10785 10777 10768 10760 10753 10748 10745 10742 10740 10732 10729 10725 10722 10720 10719 10716 10715 10714 10715 10716 10719 10723 10729 10736
10887 10891 10884 10879 10879 10874 10876 10877 10873 10871 10870 10866 10864 10857 10849 10845 10839 10831 10824 10820 10810 10802 10791 10783 10776 10770 10763 10754 10744 10736 10730 10728 10724 10720 10715 10711 10706 10704 10701 10698 10696 10694 10692 10692 10694 10695 10698 10703 10712
10881 10883 10876 10870 10870 10869 10866 10867 10864 10863 10862 10860 10855 10848 10839 10834 10828 10821 10813 10806 10799 10792 10783 10773 10764 10752 10744 10738 10730 10722 10716 10711 10708 10703 10698 10693 10689 10683 10679 10677 10675 10673 10673 10672 10675 10676 10677 10681 10689
10871 10875 10865 10862 10859 10861 10857 10855 10853 10852 10848 10849 10844 10838 10831 10823 10817 10813 10806 10797 10787 10779 10772 10762 10749 10738 10733 10728 10723 10717 10709 10701 10696 10691 10685 10678 10672 10667 10663 10659 10656 10655 10654 10653 10653 10654 10655 10660 10667
10859 10864 10854 10850 10850 10850 10849 10845 10844 10841 10836 10838 10833 10826 10818 10812 10807 10802 10796 10787 10777 10769 10762 10752 10739 10730 10724 10717 10712 10705 10696 10689 10683 10677 10670 10663 10657 10652 10648 10644 10640 10638 10636 10636 10636 10637 10637 10643 10650
10848 10850 10847 10843 10838 10840 10840 10837 10831 10830 10827 10828 10823 10816 10807 10800 10792 10787 10782 10778 10770 10759 10751 10739 10728 10719 10712 10706 10697 10688 10683 10678 10672 10664 10659 10653 10646 10640 10635 10630 10626 10624 10623 10621 10619 10621 10624 10629 10637
10836 10836 10836 10833 10830 10830 10831 10827 10823 10817 10818 10818 10813 10804 10797 10789 10779 10773 10766 10761 10758 10747 10736 10728 10716 10707 10700 10693 10686 10679 10673 10665 10659 10654 10648 10642 10636 10630 10623 10619 10615 10612 10610 10608 10608 10610 10612 10618 10625
10820 10826 10826 10821 10820 10820 10821 10819 10815 10807 10806 10806 10803 10792 10786 10779 10769 10762 10754 10746 10740 10731 10723 10715 10707 10698 10690 10684 10678 10671 10664 10657 10652 10647 10641 10634 10628 10622 10615 10610 10606 10604 10602 10599 10600 10601 10604 10609 10614
10811 10814 10816 10809 10809 10810 10811 10812 10804 10801 10797 10794 10792 10784 10778 10769 10759 10752 10744 10734 10727 10720 10713 10706 10698 10690 10683 10676 10669 10661 10656 10651 10646 10641 10634 10626 10620 10614 10607 10602 10598 10596 10594 10593 10593 10594 10597 10602 10608
10797 10802 10803 10795 10800 10797 10806 10798 10794 10792 10789 10784 10779 10775 10771 10762 10751 10745 10736 10726 10718 10713 10704 10695 10691 10684 10676 10668 10661 10655 10649 10645 10641 10635 10629 10621 10613 10606 10601 10595 10592 10589 10587 10587 10588 10589 10592 10598 10604
10785 10788 10790 10787 10792 10789 10795 10790 10785 10784 10780 10775 10771 10766 10760 10751 10743 10735 10728 10721 10713 10705 10694 10688 10684 10677 10670 10663 10657 10650 10645 10640 10636 10630 10624 10616 10609 10602 10597 10591 10588 10585 10583 10583 10584 10586 10590 10595 10600
10777 10778 10780 10775 10779 10781 10783 10782 10777 10773 10772 10768 10761 10757 10749 10742 10735 10728 10721 10714 10706 10698 10688 10683 10676 10670 10663 10657 10651 10645 10641 10636 10631 10625 10619 10611 10604 10599 10593 10589 10585 10581 10580 10581 10582 10584 10588 10594 10600
10766 10768 10766 10766 10769 10773 10770 10772 10768 10767 10764 10761 10756 10749 10741 10733 10729 10719 10711 10703 10697 10690 10683 10678 10671 10665 10659 10652 10646 10641 10637 10634 10628 10620 10613 10606 10600 10596 10589 10586 10583 10580 10578 10579 10580 10583 10588 10594 10600
10755 10757 10750 10754 10756 10762 10760 10762 10762 10761 10759 10755 10748 10738 10731 10722 10715 10711 10703 10696 10688 10681 10677 10671 10664 10659 10654 10647 10641 10637 10634 10630 10625 10618 10609 10602 10597 10592 10587 10584 10581 10578 10578 10578 10580 10584 10588 10593 10599
10740 10742 10738 10742 10748 10752 10750 10752 10753 10753 10749 10745 10739 10729 10718 10712 10704 10701 10697 10689 10681 10676 10671 10665 10659 10654 10649 10642 10637 10634 10632 10629 10623 10616 10608 10601 10596 10590 10585 10582 10580 10579 10578 10579 10580 10583 10586 10592 10599
10728 10722 10729 10733 10740 10740 10742 10743 10744 10745 10742 10737 10732 10722 10714 10706 10701 10696 10689 10682 10677 10672 10665 10660 10655 10651 10645 10639 10635 10632 10631 10627 10620 10613 10607 10601 10595 10590 10585 10582 10580 10580 10579 10579 10581 10584 10588 10594 10601
10711 10718 10722 10727 10730 10731 10734 10736 10738 10737 10736 10730 10724 10717 10708 10702 10697 10691 10683 10677 10672 10666 10660 10656 10652 10648 10642 10636 10633 10631 10629 10625 10618 10612 10606 10600 10594 10590 10585 10583 10580 10581 10581 10582 10584 10586 10591 10596 10603
10691 10712 10714 10717 10723 10729 10720 10728 10731 10729 10727 10721 10715 10709 10702 10695 10690 10684 10678 10672 10667 10660 10655 10652 10649 10644 10639 10634 10632 10630 10628 10623 10618 10610 10603 10597 10594 10589 10585 10583 10582 10582 10583 10584 10586 10590 10595 10601 10606
10690 10697 10705 10711 10717 10715 10714 10719 10723 10720 10720 10714 10708 10702 10699 10690 10686 10681 10674 10668 10663 10656 10653 10650 10646 10641 10636 10633 10631 10630 10628 10623 10617 10609 10603 10596 10593 10589 10586 10584 10584 10584 10586 10589 10592 10596 10599 10604 10611
10679 10684 10695 10702 10703 10707 10710 10709 10716 10711 10712 10710 10705 10700 10696 10687 10682 10675 10669 10664 10658 10654 10651 10647 10643 10638 10634 10631 10631 10630 10628 10623 10617 10609 10601 10595 10592 10589 10586 10586 10587 10588 10589 10592 10595 10599 10604 10608 10613
10669 10684 10679 10687 10694 10701 10703 10700 10706 10704 10705 10704 10700 10696 10691 10684 10675 10670 10666 10660 10655 10651 10648 10645 10641 10636 10633 10632 10632 10631 10629 10624 10618 10609 10601 10596 10591 10588 10586 10587 10590 10592 10593 10595 10599 10603 10607 10611 10616
10664 10663 10670 10682 10689 10690 10692 10694 10698 10696 10699 10698 10696 10691 10687 10680 10673 10668 10662 10657 10652 10649 10646 10643 10640 10636 10633 10632 10633 10633 10630 10625 10618 10611 10604 10597 10593 10590 10589 10591 10593 10596 10597 10599 10601 10605 10609 10613 10618
10647 10656 10663 10670 10676 10680 10684 10687 10691 10690 10692 10692 10692 10688 10682 10678 10670 10664 10659 10654 10649 10648 10645 10642 10638 10635 10633 10632 10634 10634 10630 10626 10620 10613 10608 10602 10600 10597 10596 10597 10597 10599 10600 10601 10603 10607 10612 10616 10620
10633 10644 10651 10662 10668 10673 10678 10681 10683 10684 10686 10687 10688 10683 10680 10675 10668 10660 10656 10652 10648 10647 10644 10641 10638 10633 10631 10631 10635 10635 10633 10629 10623 10617 10613 10610 10607 10605 10604 10603 10602 10605 10607 10606 10609 10611 10615 10618 10623